Location: Hawks Ness
(60.2333°N, 1.1667°W)
Time: 07:33:42
(UTC+00:00)

MSX - Pass Details

Date: 22 October 2019
Orbit: 894 x 906 km, 98.7° (Epoch: 12 November)

Event Time Altitude Azimuth Distance (km) Brightness Sun altitude
Rises 05:05:33 0° 18° (NNE) 3,526 7.2 -14.9°
Reaches altitude 10° 05:07:59 10° 16° (NNE) 2,582 6.5 -14.6°
Maximum altitude 05:13:41 69° 295° (WNW) 958 3.8 -13.9°
Drops below altitude 10° 05:19:22 10° 213° (SSW) 2,567 5.9 -13.2°
Sets 05:21:46 0° 211° (SSW) 3,505 6.6 -12.9°
